SCP
0 0 0 0 0 0 0 0 0 0 0 0 0 0 0 0 0 0 0 0 0 0 0 0 0 0 0 0 0 0 0 0 0 0 0 0 0 0 0 0 0 0 0
0 0 0 0 0 0 0 0 0 0 0 0 0 0 0 0 0 0 0 0 0 0 0 0 0 0 0 0 0 0 0 0 0 0 0 0 0 0 0 0 0 0 0
0 0 0 0 0 0 0 0 0 0 0 0 0 0 0 0 0 0 0 0 0 0 0 0 0 0 0 0 0 0 0 0 0 0 0 0 0 0 0 0 0 0 0
0 0 0 0 0 0 0 0 0 0 0 0 0 0 0 0 0 0 0 0 0 0 0 0 0 0 0 0 0 0 0 0 0 0 0 0 0 0 0 0 0 0 0
0 0 0 0 0 0 0 0 0 0 0 0 0 0 0 0 0 0 0 0 0 0 0 0 0 0 0 0 0 0 0 0 0 0 0 0 0 0 0 0 0 0 0
0 0 0 0 0 0 0 0 0 0 0 0 0 0 0 0 0 0 0 0 0 0 0 0 0 0 0 0 0 0 0 0 0 0 0 0 0 0 0 0 0 0 0
0 0 0 0 0 0 0 0 0 0 0 0 0 0 0 0 0 0 0 0 0 0 0 0 0 0 0 0 0 0 0 0 0 0 0 0 0 0 0 0 0 0 0
0 0 0 0 0 0 0 0 0 0 0 0 0 0 0 0 0 0 0 0 0 0 0 0 0 0 0 0 0 0 0 0 0 0 0 0 0 0 0 0 0 0 0
0 0 0 0 0 0 0 0 0 0 0 0 0 0 0 0 0 0 0 0 0 0 0 0 0 0 0 0 0 0 0 0 0 0 0 0 0 0 0 0 0 0 0
0 0 0 0 0 0 0 0 0 0 0 0 0 0 0 0 0 0 0 0 0 0 0 0 0 0 0 0 0 0 0 0 0 0 0 0 0 0 0 0 0 0 0
0 0 0 0 0 0 0 0 0 0 0 0 0 0 0 0 0 0 0 0 0 0 0 0 0 0 0 0 0 0 0 0 0 0 0 0 0 0 0 0 0 0 0
0 0 0 0 0 0 0 0 0 0 0 0 0 0 0 0 0 0 0 0 0 0 0 0 0 0 0 0 0 0 0 0 0 0 0 0 0 0 0 0 0 0 0
0 0 0 0 0 0 0 0 0 0 0 0 0 0 0 0 0 0 0 0 0 0 0 0 0 0 0 0 0 0 0 0 0 0 0 0 0 0 0 0 0 0 0
0 0 0 0 0 0 0 0 0 0 0 0 0 0 0 0 0 0 0 0 0 0 0 0 0 0 0 0 0 0 0 0 0 0 0 0 0 0 0 0 0 0 0
0 0 0 0 0 0 0 0 0 0 0 0 0 0 0 0 0 0 0 0 0 0 0 0 0 0 0 0 0 0 0 0 0 0 0 0 0 0 0 0 0 0 0
0 0 0 0 0 0 0 0 0 0 0 0 0 0 0 0 0 0 0 0 0 0 0 0 0 0 0 0 0 0 0 0 0 0 0 0 0 0 0 0 0 0 0
0 0 0 0 0 0 0 0 0 0 0 0 0 0 0 0 0 0 0 0 0 0 0 0 0 0 0 0 0 0 0 0 0 0 0 0 0 0 0 0 0 0 0
0 0 0 0 0 0 0 0 0 0 0 0 0 0 0 0 0 0 0 0 0 0 0 0 0 0 0 0 0 0 0 0 0 0 0 0 0 0 0 0 0 0 0
0 0 0 0 0 0 0 0 0 0 0 0 0 0 0 0 0 0 0 0 0 0 0 0 0 0 0 0 0 0 0 0 0 0 0 0 0 0 0 0 0 0 0
0 0 0 0 0 0 0 0 0 0 0 0 0 0 0 0 0 0 0 0 0 0 0 0 0 0 0 0 0 0 0 0 0 0 0 0 0 0 0 0 0 0 0
0 0 0 0 0 0 0 0 0 0 0 0 0 0 0 0 0 0 0 0 0 0 0 0 0 0 0 0 0 0 0 0 0 0 0 0 0 0 0 0 0 0 0
0 0 0 0 0 0 0 0 0 0 0 0 0 0 0 0 0 0 0 0 0 0 0 0 0 0 0 0 0 0 0 0 0 0 0 0 0 0 0 0 0 0 0
0 0 0 0 0 0 0 0 0 0 0 0 0 0 0 0 0 0 0 0 0 0 0 0 0 0 0 0 0 0 0 0 0 0 0 0 0 0 0 0 0 0 0
0 0 0 0 0 0 0 0 0 0 0 0 0 0 0 0 0 0 0 0 0 0 0 0 0 0 0 0 0 0 0 0 0 0 0 0 0 0 0 0 0 0 0
0 0 0 0 0 0 0 0 0 0 0 0 0 0 0 0 0 0 0 0 0 0 0 0 0 0 0 0 0 0 0 0 0 0 0 0 0 0 0 0 0 0 0
0 0 0 0 0 0 0 0 0 0 0 0 0 0 0 0 0 0 0 0 0 0 0 0 0 0 0 0 0 0 0 0 0 0 0 0 0 0 0 0 0 0 0
Wind_Speed_500mb
27 28 24 20 18 14 13 10 13 13 15 17 19 20 24 28 32 38 39 44 35 32 32 34 32 34 33 35 34 32 30 30 30 31 33 34 35 36 38 39 40 42 42
37 31 29 28 25 24 24 24 19 18 18 19 20 23 25 27 30 35 35 31 28 23 28 31 29 30 31 31 32 33 32 29 28 28 30 34 38 42 46 48 51 53 54
45 41 38 36 34 34 32 32 28 21 19 20 21 26 28 28 28 29 29 25 16 13 20 25 27 27 28 28 29 30 33 33 36 38 41 43 45 47 48 50 51 52 53
50 51 48 46 42 42 40 37 33 24 21 27 29 32 32 30 29 27 24 21 18 14 9 7 6 16 25 24 25 28 30 32 36 39 41 43 45 47 48 50 52 54 56
55 55 57 53 53 54 47 41 38 32 28 35 34 36 35 33 31 27 22 18 15 12 9 6 4 6 11 22 24 25 28 30 34 37 39 42 45 47 49 51 52 54 57
64 62 63 62 62 61 52 50 50 42 34 38 42 40 37 35 31 28 24 20 18 15 12 8 6 5 6 12 20 22 24 26 30 34 38 41 44 47 48 50 53 57 59
72 68 70 70 56 65 63 56 53 54 48 50 47 42 36 34 32 29 26 24 22 20 15 11 9 8 6 7 11 16 20 23 26 31 36 39 42 46 49 53 55 58 61
79 80 73 75 62 69 63 64 63 62 55 55 56 46 30 28 33 33 31 30 27 23 19 16 13 9 6 5 7 8 12 15 20 25 31 35 40 45 49 52 56 59 62
85 82 77 75 81 80 73 72 77 68 58 61 64 33 21 19 38 36 36 34 31 28 23 18 13 8 5 2 2 3 7 11 16 21 24 30 36 42 47 52 57 60 65
88 87 82 82 78 84 81 71 82 79 63 69 71 65 35 31 26 24 41 41 37 33 27 22 16 12 8 7 5 1 4 9 13 18 23 29 35 41 46 52 57 63 66
79 85 84 81 87 76 85 73 94 86 74 78 72 78 56 38 28 23 27 45 47 41 34 29 23 17 14 12 8 3 4 9 14 19 24 29 34 40 46 52 59 63 69
79 81 84 83 77 86 89 90 90 91 70 79 79 80 74 59 47 33 27 32 41 43 39 35 30 24 19 16 11 9 9 11 14 19 24 30 36 41 46 53 59 65 70
77 76 82 81 85 83 81 97 94 79 72 82 79 82 69 61 52 43 39 35 34 34 40 39 35 29 23 21 18 16 15 15 17 21 27 32 37 43 48 54 61 66 70
71 75 75 75 73 73 66 78 83 78 83 81 83 79 71 60 52 46 48 45 32 31 38 32 38 33 28 27 24 23 22 20 23 27 32 36 41 47 53 58 62 67 72
72 75 72 75 82 75 82 82 86 80 84 83 82 78 69 60 56 50 46 40 35 28 33 34 29 34 34 31 29 29 27 27 29 33 38 42 47 53 58 62 65 70 75
72 67 71 74 71 84 94 90 84 80 82 77 82 76 71 65 58 52 49 43 40 29 25 32 31 32 32 34 33 32 31 34 38 40 42 47 52 57 62 66 69 73 77
66 69 68 71 76 80 81 90 84 82 80 83 85 81 73 65 58 51 45 39 34 26 23 21 28 31 33 35 34 33 35 40 43 46 49 53 57 62 65 66 70 73 75
61 64 70 74 76 84 89 90 85 82 84 87 87 82 76 69 61 54 46 37 27 22 22 29 31 33 34 33 32 35 40 43 46 47 51 57 60 62 64 66 69 69 75
59 62 66 70 73 79 83 87 84 83 86 88 85 80 73 66 61 53 42 30 25 25 27 28 30 32 34 33 34 36 39 44 48 51 55 60 63 65 67 76 73 74 75
62 62 65 66 67 74 82 82 83 82 82 82 77 74 70 64 55 44 33 31 30 30 25 32 32 35 34 35 35 36 38 43 52 56 61 64 67 69 75 76 79 77 82
60 58 62 64 65 70 77 83 86 74 78 76 72 67 60 53 45 36 32 34 31 29 33 34 38 37 34 35 36 39 45 51 57 63 59 70 71 78 80 78 78 79 83
60 62 63 64 65 69 78 84 81 79 80 78 72 67 59 54 44 32 33 34 32 31 39 38 44 40 38 40 42 45 50 54 60 69 70 78 79 84 78 78 80 84 82
57 61 62 63 63 67 76 81 86 85 81 76 71 68 70 60 42 29 31 34 41 42 42 45 48 43 45 47 50 51 55 59 65 68 73 85 81 82 83 80 87 88 77
54 58 61 60 60 61 68 76 83 74 76 75 70 70 69 63 38 28 37 52 54 47 51 49 51 47 50 55 57 58 60 65 70 69 65 82 80 89 85 90 94 71 60
56 58 57 57 57 57 64 70 73 77 76 74 72 69 70 54 34 42 58 57 59 55 54 55 54 53 59 61 60 63 65 61 70 70 57 71 78 78 94 100 64 72 88
51 53 53 51 52 52 57 68 70 77 76 72 74 72 70 64 58 62 58 59 66 64 60 66 61 56 59 59 58 59 63 61 63 65 45 55 69 65 73 104 93 100 103
Wind_Direction_500mb
225 226 221 224 223 219 239 245 216 200 181 171 163 158 151 141 138 139 137 132 124 117 96 86 78 77 70 66 59 50 50 47 44 41 38 34 32 30 27 23 19 15 11
224 232 231 227 226 217 216 206 208 212 198 188 178 167 161 152 145 146 150 153 149 127 99 92 87 78 72 63 62 62 61 58 53 49 42 38 33 30 26 24 22 19 17
229 227 235 229 229 223 218 222 211 214 223 201 190 176 171 164 159 154 153 157 162 152 121 97 87 80 73 66 64 64 62 57 52 48 44 40 34 32 30 29 27 24 21
232 232 231 236 234 226 225 221 221 221 230 194 193 184 176 171 168 168 168 166 161 154 153 136 119 89 82 73 67 65 63 55 48 43 41 38 37 37 35 31 27 23 19
238 237 236 235 234 228 225 225 226 221 236 208 197 188 179 176 177 177 176 178 177 173 179 175 132 95 94 81 74 68 61 54 48 45 44 41 37 35 32 30 26 22 18
240 238 239 241 241 228 230 231 230 219 219 209 199 189 184 182 183 184 185 188 189 192 195 190 163 132 103 96 83 72 64 54 49 46 43 41 36 34 31 27 23 19 15
239 237 239 242 246 224 230 235 223 213 209 207 205 184 183 189 193 194 196 198 200 202 201 193 186 177 155 119 108 85 67 58 48 44 42 38 34 30 26 20 17 14 11
235 237 238 243 249 225 237 242 221 206 211 217 209 185 179 197 202 203 205 208 209 209 206 200 194 185 163 118 88 63 47 45 44 42 36 30 26 22 19 15 11 8 5
232 232 235 239 250 231 239 229 221 224 225 214 213 192 178 202 205 213 214 215 215 215 211 207 202 198 190 164 95 35 35 38 36 27 22 19 16 14 11 7 3 1 358
230 234 231 232 241 223 245 230 229 224 228 225 210 206 202 204 179 190 218 218 219 220 219 215 213 213 217 216 217 271 27 25 15 13 11 9 8 7 3 360 357 354 353
226 230 234 233 229 236 243 238 223 231 226 223 227 214 207 209 211 203 201 213 217 219 220 219 220 221 226 230 229 245 320 342 350 356 358 358 357 356 354 352 350 348 347
230 231 236 234 233 242 239 236 230 227 229 230 225 222 219 219 222 215 218 221 216 219 219 221 222 225 230 232 240 256 278 306 327 340 343 344 344 343 343 344 344 343 340
233 233 229 239 235 236 246 235 223 223 241 233 225 226 225 226 238 231 229 213 196 214 217 222 225 230 235 241 244 253 269 290 307 319 329 330 329 332 334 337 337 336 334
240 239 238 234 238 240 231 229 224 232 234 229 227 230 228 231 235 233 229 225 194 216 215 229 229 232 238 244 249 257 266 280 296 309 313 318 322 324 328 330 331 331 330
244 235 232 237 244 229 232 228 232 236 233 228 228 226 228 233 235 230 231 227 223 203 209 224 232 236 242 247 253 261 272 284 294 302 308 314 318 322 323 325 327 326 324
243 230 232 233 234 238 231 231 232 235 233 229 226 224 229 232 228 226 221 221 219 219 192 228 229 248 247 250 258 266 277 289 295 302 310 313 316 318 321 322 322 322 322
240 232 230 233 237 232 235 235 229 233 228 225 223 225 227 225 223 219 217 213 213 218 224 233 254 257 255 260 267 276 286 291 299 306 309 311 316 318 320 321 322 321 320
242 236 240 239 242 237 236 229 228 230 225 223 223 224 220 218 213 213 209 202 219 222 254 261 254 261 262 267 275 284 289 294 300 307 309 313 318 321 320 321 322 324 322
243 241 241 243 248 244 236 232 229 226 226 227 225 224 221 213 210 207 201 211 215 239 243 252 258 265 269 273 277 284 292 300 304 309 314 316 318 319 320 322 323 326 323
245 241 245 248 249 240 236 235 230 230 229 225 221 221 218 213 208 200 206 224 235 236 246 248 253 262 265 273 281 289 295 302 306 310 312 314 318 317 320 318 322 325 325
247 248 248 249 246 242 239 233 234 228 226 222 219 217 214 206 200 205 230 241 232 239 247 246 260 260 266 273 284 292 297 301 305 309 312 313 313 313 319 321 321 323 322
246 246 249 252 251 248 240 235 232 224 225 223 223 215 206 203 207 223 253 229 235 245 245 258 258 263 271 279 285 290 295 302 302 307 309 309 311 313 316 317 319 320 319
248 248 250 254 256 251 248 239 225 224 225 220 222 215 207 207 216 260 249 243 249 240 247 259 262 269 277 283 286 290 295 297 298 303 306 306 309 311 315 313 318 321 319
252 252 249 250 256 255 250 241 233 223 223 229 229 218 213 214 222 270 283 285 250 238 248 257 270 273 281 283 286 291 293 295 296 299 306 302 310 309 312 313 317 319 317
250 254 256 254 252 253 252 244 232 222 229 227 226 217 214 216 245 266 278 279 251 245 252 257 262 269 275 284 290 292 292 297 297 301 296 296 301 305 310 312 315 308 315
247 250 255 257 257 254 248 246 233 227 225 225 224 217 221 226 240 255 276 274 258 252 253 256 262 275 274 276 281 282 286 284 289 292 296 291 299 301 307 311 309 313 316
Wind_Speed_850mb
27 28 24 20 18 14 13 10 13 13 15 17 19 20 24 28 32 38 39 44 35 32 32 34 32 34 33 35 34 32 30 30 30 31 33 34 35 36 38 39 40 42 42
37 31 29 28 25 24 24 24 19 18 18 19 20 23 25 27 30 35 35 31 28 23 28 31 29 30 31 31 32 33 32 29 28 28 30 34 38 42 46 48 51 53 54
45 41 38 36 34 34 32 32 28 21 19 20 21 26 28 28 28 29 29 25 16 13 20 25 27 27 28 28 29 30 33 33 36 38 41 43 45 47 48 50 51 52 53
50 51 48 46 42 42 40 37 33 24 21 27 29 32 32 30 29 27 24 21 18 14 9 7 6 16 25 24 25 28 30 32 36 39 41 43 45 47 48 50 52 54 56
55 55 57 53 53 54 47 41 38 32 28 35 34 36 35 33 31 27 22 18 15 12 9 6 4 6 11 22 24 25 28 30 34 37 39 42 45 47 49 51 52 54 57
64 62 63 62 62 61 52 50 50 42 34 38 42 40 37 35 31 28 24 20 18 15 12 8 6 5 6 12 20 22 24 26 30 34 38 41 44 47 48 50 53 57 59
72 68 70 70 56 65 63 56 53 54 48 50 47 42 36 34 32 29 26 24 22 20 15 11 9 8 6 7 11 16 20 23 26 31 36 39 42 46 49 53 55 58 61
79 80 73 75 62 69 63 64 63 62 55 55 56 46 30 28 33 33 31 30 27 23 19 16 13 9 6 5 7 8 12 15 20 25 31 35 40 45 49 52 56 59 62
85 82 77 75 81 80 73 72 77 68 58 61 64 33 21 19 38 36 36 34 31 28 23 18 13 8 5 2 2 3 7 11 16 21 24 30 36 42 47 52 57 60 65
88 87 82 82 78 84 81 71 82 79 63 69 71 65 35 31 26 24 41 41 37 33 27 22 16 12 8 7 5 1 4 9 13 18 23 29 35 41 46 52 57 63 66
79 85 84 81 87 76 85 73 94 86 74 78 72 78 56 38 28 23 27 45 47 41 34 29 23 17 14 12 8 3 4 9 14 19 24 29 34 40 46 52 59 63 69
79 81 84 83 77 86 89 90 90 91 70 79 79 80 74 59 47 33 27 32 41 43 39 35 30 24 19 16 11 9 9 11 14 19 24 30 36 41 46 53 59 65 70
77 76 82 81 85 83 81 97 94 79 72 82 79 82 69 61 52 43 39 35 34 34 40 39 35 29 23 21 18 16 15 15 17 21 27 32 37 43 48 54 61 66 70
71 75 75 75 73 73 66 78 83 78 83 81 83 79 71 60 52 46 48 45 32 31 38 32 38 33 28 27 24 23 22 20 23 27 32 36 41 47 53 58 62 67 72
72 75 72 75 82 75 82 82 86 80 84 83 82 78 69 60 56 50 46 40 35 28 33 34 29 34 34 31 29 29 27 27 29 33 38 42 47 53 58 62 65 70 75
72 67 71 74 71 84 94 90 84 80 82 77 82 76 71 65 58 52 49 43 40 29 25 32 31 32 32 34 33 32 31 34 38 40 42 47 52 57 62 66 69 73 77
66 69 68 71 76 80 81 90 84 82 80 83 85 81 73 65 58 51 45 39 34 26 23 21 28 31 33 35 34 33 35 40 43 46 49 53 57 62 65 66 70 73 75
61 64 70 74 76 84 89 90 85 82 84 87 87 82 76 69 61 54 46 37 27 22 22 29 31 33 34 33 32 35 40 43 46 47 51 57 60 62 64 66 69 69 75
59 62 66 70 73 79 83 87 84 83 86 88 85 80 73 66 61 53 42 30 25 25 27 28 30 32 34 33 34 36 39 44 48 51 55 60 63 65 67 76 73 74 75
62 62 65 66 67 74 82 82 83 82 82 82 77 74 70 64 55 44 33 31 30 30 25 32 32 35 34 35 35 36 38 43 52 56 61 64 67 69 75 76 79 77 82
60 58 62 64 65 70 77 83 86 74 78 76 72 67 60 53 45 36 32 34 31 29 33 34 38 37 34 35 36 39 45 51 57 63 59 70 71 78 80 78 78 79 83
60 62 63 64 65 69 78 84 81 79 80 78 72 67 59 54 44 32 33 34 32 31 39 38 44 40 38 40 42 45 50 54 60 69 70 78 79 84 78 78 80 84 82
57 61 62 63 63 67 76 81 86 85 81 76 71 68 70 60 42 29 31 34 41 42 42 45 48 43 45 47 50 51 55 59 65 68 73 85 81 82 83 80 87 88 77
54 58 61 60 60 61 68 76 83 74 76 75 70 70 69 63 38 28 37 52 54 47 51 49 51 47 50 55 57 58 60 65 70 69 65 82 80 89 85 90 94 71 60
56 58 57 57 57 57 64 70 73 77 76 74 72 69 70 54 34 42 58 57 59 55 54 55 54 53 59 61 60 63 65 61 70 70 57 71 78 78 94 100 64 72 88
51 53 53 51 52 52 57 68 70 77 76 72 74 72 70 64 58 62 58 59 66 64 60 66 61 56 59 59 58 59 63 61 63 65 45 55 69 65 73 104 93 100 103
Wind_Direction_850mb
225 226 221 224 223 219 239 245 216 200 181 171 163 158 151 141 138 139 137 132 124 117 96 86 78 77 70 66 59 50 50 47 44 41 38 34 32 30 27 23 19 15 11
224 232 231 227 226 217 216 206 208 212 198 188 178 167 161 152 145 146 150 153 149 127 99 92 87 78 72 63 62 62 61 58 53 49 42 38 33 30 26 24 22 19 17
229 227 235 229 229 223 218 222 211 214 223 201 190 176 171 164 159 154 153 157 162 152 121 97 87 80 73 66 64 64 62 57 52 48 44 40 34 32 30 29 27 24 21
232 232 231 236 234 226 225 221 221 221 230 194 193 184 176 171 168 168 168 166 161 154 153 136 119 89 82 73 67 65 63 55 48 43 41 38 37 37 35 31 27 23 19
238 237 236 235 234 228 225 225 226 221 236 208 197 188 179 176 177 177 176 178 177 173 179 175 132 95 94 81 74 68 61 54 48 45 44 41 37 35 32 30 26 22 18
240 238 239 241 241 228 230 231 230 219 219 209 199 189 184 182 183 184 185 188 189 192 195 190 163 132 103 96 83 72 64 54 49 46 43 41 36 34 31 27 23 19 15
239 237 239 242 246 224 230 235 223 213 209 207 205 184 183 189 193 194 196 198 200 202 201 193 186 177 155 119 108 85 67 58 48 44 42 38 34 30 26 20 17 14 11
235 237 238 243 249 225 237 242 221 206 211 217 209 185 179 197 202 203 205 208 209 209 206 200 194 185 163 118 88 63 47 45 44 42 36 30 26 22 19 15 11 8 5
232 232 235 239 250 231 239 229 221 224 225 214 213 192 178 202 205 213 214 215 215 215 211 207 202 198 190 164 95 35 35 38 36 27 22 19 16 14 11 7 3 1 358
230 234 231 232 241 223 245 230 229 224 228 225 210 206 202 204 179 190 218 218 219 220 219 215 213 213 217 216 217 271 27 25 15 13 11 9 8 7 3 360 357 354 353
226 230 234 233 229 236 243 238 223 231 226 223 227 214 207 209 211 203 201 213 217 219 220 219 220 221 226 230 229 245 320 342 350 356 358 358 357 356 354 352 350 348 347
230 231 236 234 233 242 239 236 230 227 229 230 225 222 219 219 222 215 218 221 216 219 219 221 222 225 230 232 240 256 278 306 327 340 343 344 344 343 343 344 344 343 340
233 233 229 239 235 236 246 235 223 223 241 233 225 226 225 226 238 231 229 213 196 214 217 222 225 230 235 241 244 253 269 290 307 319 329 330 329 332 334 337 337 336 334
240 239 238 234 238 240 231 229 224 232 234 229 227 230 228 231 235 233 229 225 194 216 215 229 229 232 238 244 249 257 266 280 296 309 313 318 322 324 328 330 331 331 330
244 235 232 237 244 229 232 228 232 236 233 228 228 226 228 233 235 230 231 227 223 203 209 224 232 236 242 247 253 261 272 284 294 302 308 314 318 322 323 325 327 326 324
243 230 232 233 234 238 231 231 232 235 233 229 226 224 229 232 228 226 221 221 219 219 192 228 229 248 247 250 258 266 277 289 295 302 310 313 316 318 321 322 322 322 322
240 232 230 233 237 232 235 235 229 233 228 225 223 225 227 225 223 219 217 213 213 218 224 233 254 257 255 260 267 276 286 291 299 306 309 311 316 318 320 321 322 321 320
242 236 240 239 242 237 236 229 228 230 225 223 223 224 220 218 213 213 209 202 219 222 254 261 254 261 262 267 275 284 289 294 300 307 309 313 318 321 320 321 322 324 322
243 241 241 243 248 244 236 232 229 226 226 227 225 224 221 213 210 207 201 211 215 239 243 252 258 265 269 273 277 284 292 300 304 309 314 316 318 319 320 322 323 326 323
245 241 245 248 249 240 236 235 230 230 229 225 221 221 218 213 208 200 206 224 235 236 246 248 253 262 265 273 281 289 295 302 306 310 312 314 318 317 320 318 322 325 325
247 248 248 249 246 242 239 233 234 228 226 222 219 217 214 206 200 205 230 241 232 239 247 246 260 260 266 273 284 292 297 301 305 309 312 313 313 313 319 321 321 323 322
246 246 249 252 251 248 240 235 232 224 225 223 223 215 206 203 207 223 253 229 235 245 245 258 258 263 271 279 285 290 295 302 302 307 309 309 311 313 316 317 319 320 319
248 248 250 254 256 251 248 239 225 224 225 220 222 215 207 207 216 260 249 243 249 240 247 259 262 269 277 283 286 290 295 297 298 303 306 306 309 311 315 313 318 321 319
252 252 249 250 256 255 250 241 233 223 223 229 229 218 213 214 222 270 283 285 250 238 248 257 270 273 281 283 286 291 293 295 296 299 306 302 310 309 312 313 317 319 317
250 254 256 254 252 253 252 244 232 222 229 227 226 217 214 216 245 266 278 279 251 245 252 257 262 269 275 284 290 292 292 297 297 301 296 296 301 305 310 312 315 308 315
247 250 255 257 257 254 248 246 233 227 225 225 224 217 221 226 240 255 276 274 258 252 253 256 262 275 274 276 281 282 286 284 289 292 296 291 299 301 307 311 309 313 316